Simultaneous Nadir Overpasses (SNOs) Predictions

Prediction of SNOs between GOES-16 and NOAA-20 Satellite Orbit:

Table of predicted SNOs for the next 14.0 days since TLE Epoch: 3/4/2023
Index Date Time (GOES-16) GOES-16 Lat,Lon NOAA-20 Lat,Lon Distance(km) Time Diff (sec)
1 03/05/2023 06:17:23 -0.07, -75.20 -0.46, -73.44 200.17 80
2 03/06/2023 18:39:20 0.06, -75.20 -0.75, -78.74 403.92 80
3 03/07/2023 18:23:17 0.06, -75.21 0.28, -74.22 113.28 80
4 03/09/2023 06:45:06 -0.06, -75.23 0.88, -79.49 485.06 80
5 03/10/2023 06:23:42 -0.06, -75.24 -0.10, -74.96 32.40 80
6 03/12/2023 18:26:55 0.06, -75.27 -0.06, -75.74 53.49 80
7 03/13/2023 18:10:52 0.06, -75.28 0.98, -71.21 464.12 80
8 03/15/2023 06:32:40 -0.05, -75.31 0.23, -76.48 133.77 80
9 03/16/2023 06:11:17 -0.05, -75.32 -0.82, -71.95 383.84 80
10 03/17/2023 18:35:53 0.04, -75.33 -0.42, -77.25 218.95 80
